#timestamp,LO_Frequency,Hit,StdDev 
1579219735.7,286046999.6,P
1579219755.5,286046998.0,N
1579219775.4,286046993.3,P
1579219795.2,286046993.8,N
1579219815.1,286046991.8,Y
1579219816.0,286046991.8,P
1579219835.8,286046998.5,N
1579219855.6,286047000.8,N
1579219875.5,286046998.8,N
1579219895.3,286046997.1,N
1579219915.1,286046999.1,N
1579219935.9,286046998.2,N
1579219955.7,286047000.9,N
1579219975.6,286047002.6,N
1579219995.4,286047001.6,N
1579220015.2,286047002.5,N
1579220035.1,286047002.4,N
1579220036.0,286047002.4,N
1579220055.8,286047001.9,N
1579220075.6,286046999.8,N
1579220095.5,286046996.6,N
1579220115.3,286046995.0,N
1579220135.2,286046994.5,N
1579220155.9,286046992.5,N
1579220175.7,286046993.6,N
1579220195.6,286046993.5,N
1579220215.4,286046994.8,N
1579220235.3,286046993.0,N
1579220255.1,286046991.7,N
1579220256.0,286046991.7,N
1579220275.8,286046994.3,N
1579220295.7,286046992.9,N
1579220315.5,286046992.6,N
1579220335.3,286046990.2,N
1579220355.2,286046990.2,N
1579220375.0,286046990.5,N
1579220375.9,286046990.5,N
1579220395.8,286046991.8,N
1579220415.6,286046994.5,N
1579220435.4,286046996.0,N
1579220455.3,286046996.9,N
1579220475.1,286047000.4,N
1579220495.9,286047005.6,N
1579220515.7,286047005.7,N
1579220535.5,286047006.0,N
1579220555.4,286047004.1,N
1579220575.2,286047003.1,N
1579220595.0,286047003.3,N
1579220595.9,286047003.3,N
1579220615.8,286047003.1,N
1579220635.6,286047006.0,N
1579220655.4,286047005.7,N
1579220675.3,286047003.5,N
1579220695.1,286047001.4,N
1579220715.9,286047002.5,N
1579220735.7,286047002.4,N
1579220755.5,286046999.9,N
1579220775.4,286047000.9,N
1579220795.2,286047000.1,N
1579220815.0,286047002.4,N
1579220815.9,286047002.4,N
1579220835.8,286047002.6,N
1579220855.6,286047003.2,N
1579220875.5,286047004.8,N
1579220895.3,286047005.7,N
1579220915.1,286047006.0,N
1579220935.9,286047003.1,N
1579220955.7,286047005.8,N
1579220975.5,286047003.2,N
1579220995.4,286047005.9,N
1579221045.2,286047005.0,E
1579221055.2,286047004.0,N
1579221075.9,286047000.7,P
1579221095.7,286046998.5,N
1579221115.6,286047000.4,N
1579221135.4,286047001.4,N
1579221155.2,286047003.6,N
1579221175.1,286047002.9,N
1579221176.0,286047002.9,N
1579221195.8,286047004.1,N
1579221215.7,286047002.1,N
1579221235.5,286047001.9,N
1579221255.3,286047002.5,N
1579221275.2,286047002.1,N
1579221295.0,286047002.3,N
1579221295.9,286047002.3,N
1579221315.8,286047002.1,N
1579221335.6,286047002.0,N
1579221355.4,286046999.7,N
1579221375.3,286047002.8,N
1579221395.1,286047002.1,N
1579221415.8,286047001.9,N
1579221435.7,286047002.1,N
1579221455.5,286047001.5,N
1579221475.4,286047004.0,Y
1579221495.2,286047000.7,P
1579221515.0,286046998.2,N
1579221515.9,286046998.2,N
1579221535.8,286047000.4,N
1579221555.6,286047000.3,N
1579221575.4,286047000.8,N
1579221595.3,286046998.7,N
1579221615.1,286046998.6,N
1579221635.9,286046998.2,N
1579221655.7,286047000.7,N
1579221675.5,286047001.2,N
1579221695.4,286046998.5,N
1579221715.2,286046998.4,N
1579221735.0,286046998.6,N
1579221735.9,286046998.6,N
1579221755.8,286046998.3,N
1579221775.6,286046999.0,N
1579221795.5,286046996.9,N
1579221815.3,286046996.6,N
1579221835.1,286046996.5,N
1579221855.9,286046995.4,Y
1579221875.7,286046996.7,P
1579221895.5,286046996.9,N
1579221915.4,286046999.5,N
1579221935.2,286046999.3,N
1579221955.1,286046999.0,N
1579221956.0,286046999.0,N
1579221975.8,286047000.3,N
1579221995.6,286046999.1,N
1579222015.5,286046994.9,Y
1579222035.3,286046996.9,P
1579222055.1,286046998.3,N
1579222075.9,286046997.4,P
1579222095.7,286046997.2,Y
1579222115.6,286047002.0,P
1579222135.4,286047001.3,N
1579222155.2,286047004.0,N
1579222175.1,286047002.3,N
1579222176.0,286047002.3,N
1579222195.8,286047002.0,N
1579222215.7,286047002.5,N
1579222235.5,286046998.1,N
1579222255.3,286047000.5,N
1579222275.2,286047002.8,N
1579222295.0,286047001.7,N
1579222295.9,286047001.7,N
1579222315.8,286047003.9,N
1579222335.6,286047001.7,N
1579222355.4,286047002.8,N
1579222375.3,286046998.1,N
1579222395.1,286046998.6,N
1579222415.8,286046999.5,N
1579222435.7,286046998.8,N
1579222455.5,286046999.0,N
1579222475.4,286046996.5,N
1579222495